sat.trackr.live / text

‹ back to catalog

STARLINK-11321 [DTC]

NORAD 61877 · 2024-204D

PAYLOAD ACTIVE UNKNOWN

§ Identity

Operator
Country
US
Launch date
2024-11-09
Launch site
AFWTR
Launch vehicle
Mass (kg)
RCS (m²)

Purposes: comms

External: N2YO · Heavens-Above · Gunter

§ Orbital elements

Epoch: 2026-05-24T20:26:22.591968Z

Period
91.74 min
Inclination
53.1596°
Eccentricity
0.0000930
Mean motion
15.69720767 rev/d
Perigee alt
359.1 km
Apogee alt
360.3 km
Semi-major
6,737.8 km
B*
-8.4363e-6
RAAN
341.0393°
Arg perigee
90.2497°
Mean anomaly
269.8627°
Rev number
8,886

§ Raw data

STARLINK-11321 [DTC]1 61877U 24204D   26144.85165037 -.00001611  00000+0 -84363-5 0  99922 61877  53.1596 341.0393 0000930  90.2497 269.8627 15.69720767 88866

JSON: /api/v1/satellites/61877 · /tle

For live sub-satellite position, see the globe view (requires WebGL).

§ Visibility from observer

Set your observer location to see the next 7 days of passes ≥ 10°. The values pass through the URL so the page stays shareable.

No JS? Fill the form by hand. The geolocation button needs JavaScript.